sat.trackr.live / text

‹ back to catalog

STARLINK-1526

NORAD 46029 · 2020-055C

PAYLOAD ACTIVE UNKNOWN

§ Identity

Operator
Country
US
Launch date
2020-08-07
Launch site
AFETR
Launch vehicle
Mass (kg)
RCS (m²)

Purposes: comms

External: N2YO · Heavens-Above · Gunter

§ Orbital elements

Epoch: 2026-05-25T03:07:26.865120Z

Period
94.11 min
Inclination
53.1600°
Eccentricity
0.0001107
Mean motion
15.30195550 rev/d
Perigee alt
474.5 km
Apogee alt
476.0 km
Semi-major
6,853.4 km
B*
9.4892e-6
RAAN
131.6550°
Arg perigee
90.2646°
Mean anomaly
269.8482°
Rev number
32,059

§ Raw data

STARLINK-15261 46029U 20055C   26145.13017205 -.00000078  00000+0  94892-5 0  99922 46029  53.1600 131.6550 0001107  90.2646 269.8482 15.30195550320597

JSON: /api/v1/satellites/46029 · /tle

For live sub-satellite position, see the globe view (requires WebGL).

§ Visibility from observer

Set your observer location to see the next 7 days of passes ≥ 10°. The values pass through the URL so the page stays shareable.

No JS? Fill the form by hand. The geolocation button needs JavaScript.